Location: The Stocker AstroScience Center
(25.7579°N, 80.3725°W)
Time: 13:45:07
(UTC-04:00)

ISS - All Passes

Search period start: 23 April 2017 00:00
Search period end: 03 May 2017 00:00
Orbit: 400 x 409 km, 51.6° (Epoch: 24 April)

Date Brightness Start Highest point End Pass type
(mag) Time Alt. Az. Time Alt. Az. Time Alt. Az.
23 Apr - 09:42:36 10° WSW 09:45:44 46° NW 09:48:52 10° NNE daylight
23 Apr - 17:52:55 10° NNW 17:56:02 42° NE 17:59:08 10° ESE daylight
24 Apr - 08:50:18 10° SSW 08:53:31 66° SE 08:56:44 10° NE daylight
24 Apr - 17:01:16 10° N 17:03:42 19° NE 17:06:09 10° E daylight
24 Apr - 18:37:35 10° WNW 18:40:04 20° SW 18:42:34 10° S daylight
25 Apr - 07:58:37 10° S 08:01:21 25° SE 08:04:06 10° ENE daylight
25 Apr - 09:35:38 10° W 09:37:47 16° NW 09:39:57 10° N daylight
25 Apr - 17:44:45 10° NW 17:47:55 51° SW 17:51:05 10° SSE daylight
26 Apr - 07:08:17 10° SE 07:09:14 11° SE 07:10:12 10° ESE daylight
26 Apr - 08:42:25 10° WSW 08:45:24 34° NW 08:48:24 10° NNE daylight
26 Apr - 16:52:29 10° NNW 16:55:41 59° NE 16:58:53 10° SE daylight
27 Apr - 07:49:52 10° SW 07:53:07 87° NW 07:56:22 10° NE daylight
27 Apr - 16:00:37 10° NNW 16:03:22 25° NE 16:06:07 10° ESE daylight
27 Apr - 17:37:38 10° W 17:39:37 15° SW 17:41:37 10° SSW daylight
28 Apr - 06:57:54 10° SSW 07:00:54 34° SE 07:03:54 10° ENE daylight
28 Apr - 08:35:50 10° WNW 08:37:26 13° NW 08:39:02 10° N daylight
28 Apr - 15:09:25 10° NNE 15:10:55 13° NE 15:12:25 10° ENE daylight
28 Apr - 16:44:27 10° WNW 16:47:28 36° SW 16:50:28 10° SSE daylight
29 Apr - 06:06:48 10° SSE 06:08:44 15° SE 06:10:40 10° E visible
29 Apr - 07:42:13 10° WSW 07:44:59 26° NW 07:47:46 10° NNE daylight
29 Apr - 15:51:59 10° NW 15:55:13 83° NE 15:58:27 10° SE daylight
30 Apr - 06:49:25 10° SW 06:52:38 62° NW 06:55:51 10° NE daylight
30 Apr - 14:59:55 10° NNW 15:02:53 32° NE 15:05:51 10° ESE daylight
30 Apr - 16:37:57 10° WSW 16:39:04 11° SW 16:40:11 10° SW daylight
01 May - 05:57:11 10° SSW 06:00:20 48° SE 06:03:29 10° NE visible
01 May - 07:36:27 10° NW 07:36:59 10° NW 07:37:31 10° NNW daylight
01 May - 14:08:22 10° N 14:10:26 16° NE 14:12:31 10° E daylight
01 May - 15:44:06 10° WNW 15:46:53 26° SW 15:49:39 10° S daylight
02 May - 05:05:40 10° S 05:08:07 20° SE 05:10:34 10° ENE visible
02 May - 06:41:57 10° W 06:44:27 20° NW 06:46:58 10° N daylight
02 May - 14:51:24 10° NW 14:54:38 70° SW 14:57:50 10° SE daylight
